Hourly Data Report for September 28, 2010

IQALUIT CLIMATE
NUNAVUT

63°44'50.000" N
68°32'40.000" W
33.50 m
2402592
71321
XFB

Download Data

Hourly Data (September 2010)
Hourly Data Report for September 28, 2010
TIME
LST
Temp Definition
°C
Dew Point Definition
°C
Rel Hum Definition
%
Precip. Amount Definition
mm

Wind Dir Definition
10's deg

Wind Spd Definition
km/h
Visibility Definition
km
Stn Press Definition
kPa
Hmdx Definition


Wind Chill Definition


Weather Definition


00:00 3.5 2.7 94   32 11   98.21     LegendNANA
01:00 3.7 2.9 94   31 13   98.23     LegendNANA
02:00 3.7 2.5 92   31 26   98.27     LegendNANA
03:00 3.7 2.6 93   31 26   98.32     LegendNANA
04:00 3.9 3.0 94   31 28   98.35     LegendNANA
05:00 3.6 2.2 91   32 44   98.41     LegendNANA
06:00 2.8 1.7 92   31 46   98.50     LegendNANA
07:00 2.5 1.5 93   32 48   98.59     LegendNANA
08:00 2.5 1.2 91   31 44   98.66     LegendNANA
09:00 2.5 0.8 89   31 48   98.72     LegendNANA
10:00 2.3 0.6 89   31 52   98.78     LegendNANA
11:00 2.3 0.8 90   31 48   98.86     LegendNANA
12:00 2.9 0.7 85   31 50   98.95     LegendNANA
13:00 2.8 0.5 85   31 48   99.03     LegendNANA
14:00 2.7 0.2 84   31 46   99.10     LegendNANA
15:00 2.7 0.1 83   31 41   99.18     LegendNANA
16:00 2.6 0.1 84   31 39   99.25     LegendNANA
17:00 2.3 0.0 85   31 35   99.32     LegendNANA
18:00 2.3 -0.4 82   31 32   99.39     LegendNANA
19:00 1.7 0.2 90   31 30   99.44     LegendNANA
20:00 2.0 -0.1 86   31 26   99.48     LegendNANA
21:00 2.2 -0.2 84   32 20   99.56     LegendNANA
22:00 1.9 -0.1 87   31 20   99.63     LegendNANA
23:00 2.0 -0.1 86   31 17   99.70     LegendNANA

Notes on Data Quality.

Legend

  • E = Estimated
  • M = Missing
  • NA = Not Available*
  • [empty] = Indicates an unobserved value
Date modified: